Year,Month,Day,Hour,Minute,Value (Times are PST for temperature in C)
2011,04,27,08,36,7.50
2011,04,27,08,37,7.50
2011,04,27,08,38,7.40
2011,04,27,08,39,7.30
2011,04,27,08,40,7.30
2011,04,27,08,41,7.20
2011,04,27,08,42,7.20
2011,04,27,08,43,7.10
2011,04,27,08,44,7.10
2011,04,27,08,45,7.00
2011,04,27,08,46,6.90
2011,04,27,08,47,6.90
2011,04,27,08,48,6.80
2011,04,27,08,49,6.80
2011,04,27,08,50,6.80
2011,04,27,08,51,6.80
2011,04,27,08,52,6.80
2011,04,27,08,53,6.80
2011,04,27,08,54,6.80
2011,04,27,08,55,6.80
2011,04,27,08,56,6.80
2011,04,27,08,57,6.90
2011,04,27,08,58,6.90
2011,04,27,08,59,6.90
2011,04,27,09,00,7.00
2011,04,27,09,01,7.00
2011,04,27,09,02,7.10
2011,04,27,09,03,7.10
2011,04,27,09,04,7.10
2011,04,27,09,05,7.10
2011,04,27,09,06,7.20
2011,04,27,09,07,7.20
2011,04,27,09,08,7.20
2011,04,27,09,09,7.20
2011,04,27,09,10,7.20
2011,04,27,09,11,7.20
2011,04,27,09,12,7.30
2011,04,27,09,13,7.30
2011,04,27,09,14,7.40
2011,04,27,09,15,7.40
2011,04,27,09,16,7.40
2011,04,27,09,17,7.50
2011,04,27,09,18,7.50
2011,04,27,09,19,7.60
2011,04,27,09,20,7.60
2011,04,27,09,21,7.70
2011,04,27,09,22,7.70
2011,04,27,09,23,7.70
2011,04,27,09,24,7.80
2011,04,27,09,25,7.80
2011,04,27,09,26,7.80
2011,04,27,09,27,7.90
2011,04,27,09,28,7.90
2011,04,27,09,29,7.90
2011,04,27,09,30,7.90
2011,04,27,09,31,8.00
2011,04,27,09,32,8.00
2011,04,27,09,33,8.00
2011,04,27,09,34,8.00
2011,04,27,09,35,8.00
2011,04,27,09,36,8.10
2011,04,27,09,37,8.10
2011,04,27,09,38,8.10
2011,04,27,09,39,8.20
2011,04,27,09,40,8.20
2011,04,27,09,41,8.20
2011,04,27,09,42,8.20
2011,04,27,09,43,8.30
2011,04,27,09,44,8.30
2011,04,27,09,45,8.40
2011,04,27,09,46,8.40
2011,04,27,09,47,8.40
2011,04,27,09,48,8.50
2011,04,27,09,49,8.60
2011,04,27,09,50,8.50
2011,04,27,09,51,8.50
2011,04,27,09,52,8.60
2011,04,27,09,53,8.60
2011,04,27,09,54,8.60
2011,04,27,09,55,8.60
2011,04,27,09,56,8.70
2011,04,27,09,57,8.70
2011,04,27,09,58,8.70
2011,04,27,09,59,8.70
2011,04,27,10,00,8.70
2011,04,27,10,01,8.70
2011,04,27,10,02,8.80
2011,04,27,10,03,8.80
2011,04,27,10,04,8.80
2011,04,27,10,05,8.80
2011,04,27,10,06,8.80
2011,04,27,10,07,8.80
2011,04,27,10,08,8.80
2011,04,27,10,09,8.80
2011,04,27,10,10,8.80
2011,04,27,10,11,8.80
2011,04,27,10,12,8.80
2011,04,27,10,13,8.90
2011,04,27,10,14,8.90
2011,04,27,10,15,8.90
2011,04,27,10,16,9.00
2011,04,27,10,17,9.00
2011,04,27,10,18,9.00
2011,04,27,10,19,9.00
2011,04,27,10,20,9.10
2011,04,27,10,21,9.10
2011,04,27,10,22,9.10
2011,04,27,10,23,9.10
2011,04,27,10,24,9.20
2011,04,27,10,25,9.10
2011,04,27,10,26,9.10
2011,04,27,10,27,9.10
2011,04,27,10,28,9.00
2011,04,27,10,29,9.00
2011,04,27,10,30,9.00
2011,04,27,10,31,9.00
2011,04,27,10,32,9.10
2011,04,27,10,33,9.10
2011,04,27,10,34,9.10
2011,04,27,10,35,9.10
2011,04,27,10,36,9.10
2011,04,27,10,37,9.10
2011,04,27,10,38,9.10
2011,04,27,10,39,9.10
2011,04,27,10,40,9.10
2011,04,27,10,41,9.10
2011,04,27,10,42,9.10
2011,04,27,10,43,9.10
2011,04,27,10,44,9.10
2011,04,27,10,45,9.10
2011,04,27,10,46,9.20
2011,04,27,10,47,9.20
2011,04,27,10,48,9.20
2011,04,27,10,49,9.10
2011,04,27,10,50,9.10
2011,04,27,10,51,9.00
2011,04,27,10,52,8.90
2011,04,27,10,53,8.80
2011,04,27,10,54,8.80
2011,04,27,10,55,8.80
2011,04,27,10,56,8.80
2011,04,27,10,57,8.80
2011,04,27,10,58,8.80
2011,04,27,10,59,8.80
2011,04,27,11,00,8.80
2011,04,27,11,01,8.80
2011,04,27,11,02,8.80
2011,04,27,11,03,8.70
2011,04,27,11,04,8.70
2011,04,27,11,05,8.80
2011,04,27,11,06,8.80
2011,04,27,11,07,8.80
2011,04,27,11,08,8.80
2011,04,27,11,09,8.70
2011,04,27,11,10,8.70
2011,04,27,11,11,8.70
2011,04,27,11,12,8.70
2011,04,27,11,13,8.70
2011,04,27,11,14,8.70
2011,04,27,11,15,8.70
2011,04,27,11,16,8.70
2011,04,27,11,17,8.80
2011,04,27,11,18,8.80
2011,04,27,11,19,8.80
2011,04,27,11,20,8.90
2011,04,27,11,21,8.90
2011,04,27,11,22,8.90
2011,04,27,11,23,8.90
2011,04,27,11,24,9.00
2011,04,27,11,25,9.10
2011,04,27,11,26,9.10
2011,04,27,11,27,9.10
2011,04,27,11,28,9.10
2011,04,27,11,29,9.10
2011,04,27,11,30,9.10
2011,04,27,11,31,9.10
2011,04,27,11,32,9.00
2011,04,27,11,33,9.00
2011,04,27,11,34,8.90
2011,04,27,11,35,8.80
2011,04,27,11,36,8.70
2011,04,27,11,37,8.60
2011,04,27,11,38,8.50
2011,04,27,11,39,8.40
2011,04,27,11,40,8.40
2011,04,27,11,41,8.30
2011,04,27,11,42,8.30
2011,04,27,11,43,8.20
2011,04,27,11,44,8.20
2011,04,27,11,45,8.10
2011,04,27,11,46,8.10
2011,04,27,11,47,8.10
2011,04,27,11,48,8.00
2011,04,27,11,49,8.00
2011,04,27,11,50,8.00
2011,04,27,11,51,7.90
2011,04,27,11,52,7.90
2011,04,27,11,53,7.90
2011,04,27,11,54,7.90
2011,04,27,11,55,7.90
2011,04,27,11,56,7.90
2011,04,27,11,57,7.80
2011,04,27,11,58,7.80
2011,04,27,11,59,7.80
2011,04,27,12,00,7.70
2011,04,27,12,01,7.70
2011,04,27,12,02,7.60
2011,04,27,12,03,7.60
2011,04,27,12,04,7.60
2011,04,27,12,05,7.60
2011,04,27,12,06,7.50
2011,04,27,12,07,7.50
2011,04,27,12,08,7.50
2011,04,27,12,09,7.40
2011,04,27,12,10,7.40
2011,04,27,12,11,7.40
2011,04,27,12,12,7.40
2011,04,27,12,13,7.40
2011,04,27,12,14,7.40
2011,04,27,12,15,7.30
2011,04,27,12,16,7.30
2011,04,27,12,17,7.30
2011,04,27,12,18,7.30
2011,04,27,12,19,7.20
2011,04,27,12,20,7.20
2011,04,27,12,21,7.20
2011,04,27,12,22,7.20
2011,04,27,12,23,7.20
2011,04,27,12,24,7.20
2011,04,27,12,25,7.20
2011,04,27,12,26,7.20
2011,04,27,12,27,7.20
2011,04,27,12,28,7.20
2011,04,27,12,29,7.20
2011,04,27,12,30,7.20
2011,04,27,12,31,7.20
2011,04,27,12,32,7.20
2011,04,27,12,33,7.20
2011,04,27,12,34,7.20
2011,04,27,12,35,7.10
2011,04,27,12,36,7.10
2011,04,27,12,37,7.10
2011,04,27,12,38,7.10
2011,04,27,12,39,7.10
2011,04,27,12,40,7.10
2011,04,27,12,41,7.10
2011,04,27,12,42,7.00
2011,04,27,12,43,7.00
2011,04,27,12,44,6.90
2011,04,27,12,45,6.90
2011,04,27,12,46,6.90
2011,04,27,12,47,6.90
2011,04,27,12,48,6.90
2011,04,27,12,49,6.80
2011,04,27,12,50,6.80
2011,04,27,12,51,6.80
2011,04,27,12,52,6.80
2011,04,27,12,53,6.80
2011,04,27,12,54,6.80
2011,04,27,12,55,6.80
2011,04,27,12,56,6.80
2011,04,27,12,57,6.80
2011,04,27,12,58,6.80
2011,04,27,12,59,6.80
2011,04,27,13,00,6.80
2011,04,27,13,01,6.80
2011,04,27,13,02,6.80
2011,04,27,13,03,6.80
2011,04,27,13,04,6.80
2011,04,27,13,05,6.80
2011,04,27,13,06,6.90
2011,04,27,13,07,6.90
2011,04,27,13,08,7.00
2011,04,27,13,09,7.00
2011,04,27,13,10,7.10
2011,04,27,13,11,7.10
2011,04,27,13,12,7.10
2011,04,27,13,13,7.10
2011,04,27,13,14,7.10
2011,04,27,13,15,7.10
2011,04,27,13,16,7.10
2011,04,27,13,17,7.10
2011,04,27,13,18,7.10
2011,04,27,13,19,7.20
2011,04,27,13,20,7.20
2011,04,27,13,21,7.20
2011,04,27,13,22,7.20
2011,04,27,13,23,7.20
2011,04,27,13,24,7.20
2011,04,27,13,25,7.30
2011,04,27,13,26,7.30
2011,04,27,13,27,7.30
2011,04,27,13,28,7.40
2011,04,27,13,29,7.40
2011,04,27,13,30,7.40
2011,04,27,13,31,7.40
2011,04,27,13,32,7.40
2011,04,27,13,33,7.40
2011,04,27,13,34,7.50
2011,04,27,13,35,7.50
2011,04,27,13,36,7.60
2011,04,27,13,37,7.70
2011,04,27,13,38,7.70
2011,04,27,13,39,7.80
2011,04,27,13,40,7.80
2011,04,27,13,41,7.90
2011,04,27,13,42,7.90
2011,04,27,13,43,7.90
2011,04,27,13,44,8.00
2011,04,27,13,45,8.00
2011,04,27,13,46,8.00
2011,04,27,13,47,8.10
2011,04,27,13,48,8.10
2011,04,27,13,49,8.10
2011,04,27,13,50,8.20
2011,04,27,13,51,8.20
2011,04,27,13,52,8.30
2011,04,27,13,53,8.30
2011,04,27,13,54,8.30
2011,04,27,13,55,8.30
2011,04,27,13,56,8.30
2011,04,27,13,57,8.30
2011,04,27,13,58,8.40
2011,04,27,13,59,8.40
2011,04,27,14,00,8.50
2011,04,27,14,01,8.60
2011,04,27,14,02,8.60
2011,04,27,14,03,8.60
2011,04,27,14,04,8.60
2011,04,27,14,05,8.60
2011,04,27,14,06,8.60
2011,04,27,14,07,8.60
2011,04,27,14,08,8.70
2011,04,27,14,09,8.70
2011,04,27,14,10,8.70
2011,04,27,14,11,8.80
2011,04,27,14,12,8.80
2011,04,27,14,13,8.70
2011,04,27,14,14,8.70
2011,04,27,14,15,8.70
2011,04,27,14,16,8.70
2011,04,27,14,17,8.70
2011,04,27,14,18,8.70
2011,04,27,14,19,8.70
2011,04,27,14,20,8.70
2011,04,27,14,21,8.70
2011,04,27,14,22,8.70
2011,04,27,14,23,8.70
2011,04,27,14,24,8.70
2011,04,27,14,25,8.70
2011,04,27,14,26,8.70
2011,04,27,14,27,8.80
2011,04,27,14,28,8.80
2011,04,27,14,29,8.80
2011,04,27,14,30,8.90
2011,04,27,14,31,8.90
2011,04,27,14,32,8.90
2011,04,27,14,33,8.90
2011,04,27,14,34,8.90
2011,04,27,14,35,8.90
2011,04,27,14,36,8.80
2011,04,27,14,37,8.80
2011,04,27,14,38,8.80
2011,04,27,14,39,8.80
2011,04,27,14,40,8.90
2011,04,27,14,41,8.90
2011,04,27,14,42,8.80
2011,04,27,14,43,8.80
2011,04,27,14,44,8.80
2011,04,27,14,45,8.80
2011,04,27,14,46,8.90
2011,04,27,14,47,8.90
2011,04,27,14,48,9.00
2011,04,27,14,49,8.90
2011,04,27,14,50,8.90
2011,04,27,14,51,8.90
2011,04,27,14,52,8.80
2011,04,27,14,53,8.80
2011,04,27,14,54,8.80
2011,04,27,14,55,8.80
2011,04,27,14,56,8.80
2011,04,27,14,57,8.80
2011,04,27,14,58,8.80
2011,04,27,14,59,8.70
2011,04,27,15,00,8.70
2011,04,27,15,01,8.60
2011,04,27,15,02,8.60
2011,04,27,15,03,8.50
2011,04,27,15,04,8.40
2011,04,27,15,05,8.30
2011,04,27,15,06,8.20
2011,04,27,15,07,8.10
2011,04,27,15,08,8.00
2011,04,27,15,09,7.90
2011,04,27,15,10,7.90
2011,04,27,15,11,7.80
2011,04,27,15,12,7.80
2011,04,27,15,13,7.70
2011,04,27,15,14,7.70
2011,04,27,15,15,7.60
2011,04,27,15,16,7.50
2011,04,27,15,17,7.40
2011,04,27,15,18,7.40
2011,04,27,15,19,7.30
2011,04,27,15,20,7.30
2011,04,27,15,21,7.20
2011,04,27,15,22,7.20
2011,04,27,15,23,7.20
2011,04,27,15,24,7.10
2011,04,27,15,25,7.10
2011,04,27,15,26,7.10
2011,04,27,15,27,7.10
2011,04,27,15,28,7.10
2011,04,27,15,29,7.10
2011,04,27,15,30,7.00
2011,04,27,15,31,7.00
2011,04,27,15,32,7.00
2011,04,27,15,33,7.00
2011,04,27,15,34,7.00
2011,04,27,15,35,7.00
2011,04,27,15,36,7.00
2011,04,27,15,37,7.00
2011,04,27,15,38,6.90
2011,04,27,15,39,6.90
2011,04,27,15,40,6.90
2011,04,27,15,41,6.90
2011,04,27,15,42,6.90
2011,04,27,15,43,6.90
2011,04,27,15,44,7.00
2011,04,27,15,45,7.00
2011,04,27,15,46,7.00
2011,04,27,15,47,7.00
2011,04,27,15,48,7.00
2011,04,27,15,49,7.00
2011,04,27,15,50,7.00
2011,04,27,15,51,7.00
2011,04,27,15,52,7.00
2011,04,27,15,53,7.00
2011,04,27,15,54,7.00
2011,04,27,15,55,7.10
2011,04,27,15,56,7.10
2011,04,27,15,57,7.10
2011,04,27,15,58,7.10
2011,04,27,15,59,7.20
2011,04,27,16,00,7.20
2011,04,27,16,01,7.20
2011,04,27,16,02,7.30
2011,04,27,16,03,7.30
2011,04,27,16,04,7.30
2011,04,27,16,05,7.30
2011,04,27,16,06,7.30
2011,04,27,16,07,7.30
2011,04,27,16,08,7.30
2011,04,27,16,09,7.30
2011,04,27,16,10,7.30
2011,04,27,16,11,7.30
2011,04,27,16,12,7.30
2011,04,27,16,13,7.30
2011,04,27,16,14,7.30
2011,04,27,16,15,7.30
2011,04,27,16,16,7.30
2011,04,27,16,17,7.30
2011,04,27,16,18,7.30
2011,04,27,16,19,7.30
2011,04,27,16,20,7.30
2011,04,27,16,21,7.30
2011,04,27,16,22,7.30
2011,04,27,16,23,7.30
2011,04,27,16,24,7.30
2011,04,27,16,25,7.30
2011,04,27,16,26,7.30
2011,04,27,16,27,7.30
2011,04,27,16,28,7.40
2011,04,27,16,29,7.40
2011,04,27,16,30,7.40
2011,04,27,16,31,7.40
2011,04,27,16,32,7.50
2011,04,27,16,33,7.50
2011,04,27,16,34,7.50
2011,04,27,16,35,7.50
2011,04,27,16,36,7.50
2011,04,27,16,37,7.50
2011,04,27,16,38,7.40
2011,04,27,16,39,7.40
2011,04,27,16,40,7.40
2011,04,27,16,41,7.30
2011,04,27,16,42,7.40
2011,04,27,16,43,7.40
2011,04,27,16,44,7.40
2011,04,27,16,45,7.40
2011,04,27,16,46,7.40
2011,04,27,16,47,7.40
2011,04,27,16,48,7.40
2011,04,27,16,49,7.40
2011,04,27,16,50,7.40
2011,04,27,16,51,7.40
2011,04,27,16,52,7.40
2011,04,27,16,53,7.50
2011,04,27,16,54,7.50
2011,04,27,16,55,7.50
2011,04,27,16,56,7.60
2011,04,27,16,57,7.70
2011,04,27,16,58,7.80
2011,04,27,16,59,7.90
2011,04,27,17,00,7.90
2011,04,27,17,01,8.00
2011,04,27,17,02,8.10
2011,04,27,17,03,8.10
2011,04,27,17,04,8.10
2011,04,27,17,05,8.10
2011,04,27,17,06,8.10
2011,04,27,17,07,8.10
2011,04,27,17,08,8.10
2011,04,27,17,09,8.10
2011,04,27,17,10,8.10
2011,04,27,17,11,8.00
2011,04,27,17,12,8.00
2011,04,27,17,13,8.10
2011,04,27,17,14,8.10
2011,04,27,17,15,8.10
2011,04,27,17,16,8.10
2011,04,27,17,17,8.00
2011,04,27,17,18,8.10
2011,04,27,17,19,8.10
2011,04,27,17,20,8.10
2011,04,27,17,21,8.10
2011,04,27,17,22,8.10
2011,04,27,17,23,8.20
2011,04,27,17,24,8.30
2011,04,27,17,25,8.30
2011,04,27,17,26,8.40
2011,04,27,17,27,8.40
2011,04,27,17,28,8.40
2011,04,27,17,29,8.40
2011,04,27,17,30,8.50
2011,04,27,17,31,8.50
2011,04,27,17,32,8.60
2011,04,27,17,33,8.70
2011,04,27,17,34,8.70
2011,04,27,17,35,8.70
2011,04,27,17,36,8.70
2011,04,27,17,37,8.70
2011,04,27,17,38,8.70
2011,04,27,17,39,8.70
2011,04,27,17,40,8.80
2011,04,27,17,41,8.80
2011,04,27,17,42,8.80
2011,04,27,17,43,8.90
2011,04,27,17,44,8.90
2011,04,27,17,45,8.90
2011,04,27,17,46,8.80
2011,04,27,17,47,8.80
2011,04,27,17,48,8.80
2011,04,27,17,49,8.70
2011,04,27,17,50,8.70
2011,04,27,17,51,8.60
2011,04,27,17,52,8.60
2011,04,27,17,53,8.70
2011,04,27,17,54,8.70
2011,04,27,17,55,8.80
2011,04,27,17,56,8.80
2011,04,27,17,57,8.90
2011,04,27,17,58,9.00
2011,04,27,17,59,9.00
2011,04,27,18,00,9.10
2011,04,27,18,01,9.10
2011,04,27,18,02,9.20
2011,04,27,18,03,9.20
2011,04,27,18,04,9.20
2011,04,27,18,05,9.20
2011,04,27,18,06,9.20
2011,04,27,18,07,9.20
2011,04,27,18,08,9.30
2011,04,27,18,09,9.20
2011,04,27,18,10,9.20
2011,04,27,18,11,9.30
2011,04,27,18,12,9.30
2011,04,27,18,13,9.30
2011,04,27,18,14,9.30
2011,04,27,18,15,9.30
2011,04,27,18,16,9.40
2011,04,27,18,17,9.40
2011,04,27,18,18,9.30
2011,04,27,18,19,9.30
2011,04,27,18,20,9.30
2011,04,27,18,21,9.20
2011,04,27,18,22,9.20
2011,04,27,18,23,9.20
2011,04,27,18,24,9.10
2011,04,27,18,25,9.10
2011,04,27,18,26,9.00
2011,04,27,18,27,9.00
2011,04,27,18,28,8.80
2011,04,27,18,29,8.80
2011,04,27,18,30,8.70
2011,04,27,18,31,8.60
2011,04,27,18,32,8.60
2011,04,27,18,33,8.50
2011,04,27,18,34,8.50
2011,04,27,18,35,8.40
2011,04,27,18,36,8.40
2011,04,27,18,37,8.40
2011,04,27,18,38,8.40
2011,04,27,18,39,8.30
2011,04,27,18,40,8.30
2011,04,27,18,41,8.30
2011,04,27,18,42,8.30
2011,04,27,18,43,8.30
2011,04,27,18,44,8.20
2011,04,27,18,45,8.20
2011,04,27,18,46,8.20
2011,04,27,18,47,8.20
2011,04,27,18,48,8.20
2011,04,27,18,49,8.20
2011,04,27,18,50,8.20
2011,04,27,18,51,8.20
2011,04,27,18,52,8.20
2011,04,27,18,53,8.20
2011,04,27,18,54,8.10
2011,04,27,18,55,8.10
2011,04,27,18,56,8.10
2011,04,27,18,57,8.00
2011,04,27,18,58,8.00
2011,04,27,18,59,8.00
2011,04,27,19,00,8.00
2011,04,27,19,01,8.00
2011,04,27,19,02,7.90
2011,04,27,19,03,7.90
2011,04,27,19,04,7.90
2011,04,27,19,05,7.90
2011,04,27,19,06,7.80
2011,04,27,19,07,7.80
2011,04,27,19,08,7.70
2011,04,27,19,09,7.70
2011,04,27,19,10,7.70
2011,04,27,19,11,7.60
2011,04,27,19,12,7.60
2011,04,27,19,13,7.50
2011,04,27,19,14,7.50
2011,04,27,19,15,7.50
2011,04,27,19,16,7.50
2011,04,27,19,17,7.50
2011,04,27,19,18,7.50
2011,04,27,19,19,7.40
2011,04,27,19,20,7.40
2011,04,27,19,21,7.40
2011,04,27,19,22,7.40
2011,04,27,19,23,7.30
2011,04,27,19,24,7.30
2011,04,27,19,25,7.30
2011,04,27,19,26,7.30
2011,04,27,19,27,7.30
2011,04,27,19,28,7.30
2011,04,27,19,29,7.30
2011,04,27,19,30,7.30
2011,04,27,19,31,7.30
2011,04,27,19,32,7.30
2011,04,27,19,33,7.30
2011,04,27,19,34,7.30
